This is the latest recevied weather packets stored in our database for station/object OH1KK. If no packets are shown the sender has not sent any weather packets the latest 10 day(s).
| Time | Temp. | Humidity | Pressure | Rain* | Wind** | Luminosity | Snow |
|---|---|---|---|---|---|---|---|
| 1777732492 | 15° C | 44% | 997.3 hPa | 0 mm | - | - | - |
| 1777731577 | 15° C | 43% | 997.2 hPa | 0 mm | - | - | - |
| 1777730662 | 15° C | 43% | 997.3 hPa | 0 mm | - | - | - |
| 1777729746 | 15° C | 45% | 997.4 hPa | 0 mm | - | - | - |
| 1777728892 | 15.56° C | 43% | 997.4 hPa | 0 mm | - | - | - |
| 1777727977 | 15.56° C | 43% | 997.4 hPa | 0 mm | - | - | - |
| 1777727062 | 15.56° C | 42% | 997.1 hPa | 0 mm | - | - | - |
| 1777725292 | 16.11° C | 38% | 997.2 hPa | 0 mm | - | - | - |
| 1777724377 | 16.67° C | 38% | 997.3 hPa | 0 mm | - | - | - |
| 1777723462 | 16.67° C | 43% | 997 hPa | 0 mm | - | - | - |
| 1777722548 | 16.11° C | 43% | 997.2 hPa | 0 mm | - | - | - |
| 1777721694 | 16.11° C | 45% | 997.2 hPa | 0 mm | - | - | - |
| 1777719863 | 15.56° C | 48% | 997.4 hPa | 0 mm | - | - | - |
| 1777718949 | 15.56° C | 50% | 996.9 hPa | 0 mm | - | - | - |
| 1777718095 | 15° C | 50% | 997.2 hPa | 0 mm | - | - | - |
| 1777717180 | 16.11° C | 50% | 997.1 hPa | 0 mm | - | - | - |
| 1777716265 | 16.11° C | 51% | 997.2 hPa | 0 mm | - | - | - |
| 1777715349 | 15.56° C | 51% | 997 hPa | 0 mm | - | - | - |
| 1777714495 | 16.11° C | 49% | 997 hPa | 0 mm | - | - | - |
| 1777713580 | 16.11° C | 49% | 997 hPa | 0 mm | - | - | - |
| 1777712666 | 15.56° C | 50% | 997 hPa | 0 mm | - | - | - |
| 1777711750 | 15.56° C | 49% | 997 hPa | 0 mm | - | - | - |
| 1777710896 | 15.56° C | 50% | 997 hPa | 0 mm | - | - | - |
| 1777709981 | 15° C | 50% | 997.1 hPa | 0 mm | - | - | - |
| 1777709066 | 15° C | 50% | 997.2 hPa | 0 mm | - | - | - |
* Rain latest hour (hover to see other rain measurements)
** Current wind speed in m/s (hover to see current wind gust speed)